Temperature
15 14 14 13 13 13 13 13 13 13 12 12 12 12 12 12 12 11 10 10 9 9 9 8 8 8 8 8 8 8 8 9 9 9 9 9 9 9 9 9 9 9 9
15 14 14 13 13 13 13 12 12 12 12 12 12 12 12 12 11 11 10 10 9 9 8 8 8 8 8 8 7 7 7 8 8 8 8 8 8 8 8 8 8 8 8
14 14 13 13 13 13 12 12 12 12 12 12 12 12 12 12 11 11 10 9 9 8 8 8 8 8 8 7 7 7 7 7 7 7 7 7 7 7 7 7 6 7 7
14 14 13 13 13 12 12 12 12 12 12 12 12 12 11 11 11 11 10 9 9 8 8 8 7 7 7 7 7 6 6 6 6 6 6 6 6 5 5 5 5 5 5
14 13 13 13 12 12 12 12 12 12 12 12 12 12 11 11 11 10 10 9 8 8 8 7 7 7 6 6 6 6 6 5 5 5 5 4 4 4 4 4 4 4 4
14 13 13 13 12 12 12 12 12 12 12 12 12 11 11 10 10 10 9 8 8 7 7 7 6 6 6 5 5 5 5 5 4 4 3 3 3 2 2 3 3 3 3
14 13 13 12 12 12 12 12 12 12 12 12 12 11 11 10 10 9 8 8 7 6 6 6 5 5 5 5 5 5 5 4 4 3 2 2 1 1 1 2 2 2 2
14 13 13 13 12 12 12 12 12 12 12 11 11 11 11 10 9 8 8 7 7 6 6 5 5 4 4 4 4 4 4 4 3 2 1 1 1 1 1 1 1 1 2
15 14 13 13 12 12 12 12 12 12 12 11 11 11 11 10 9 8 8 7 6 6 5 5 4 4 4 4 4 3 3 3 2 1 0 0 -0 -0 -0 0 0 1 1
15 14 13 13 13 12 12 12 12 11 11 11 11 10 10 10 9 8 7 7 6 5 5 4 4 4 3 3 3 2 2 1 -0 -1 -1 -1 -1 -1 -1 -0 -0 0 0
15 14 13 13 12 12 12 11 11 11 11 10 10 10 9 9 8 8 7 6 5 5 5 4 4 4 3 3 2 1 1 -0 -1 -2 -2 -2 -2 -1 -1 -1 -1 -1 -1
15 14 13 12 12 12 11 11 11 10 10 10 9 9 9 8 7 6 6 5 5 5 4 4 4 3 2 2 1 0 -1 -1 -2 -3 -3 -3 -3 -2 -2 -2 -2 -2 -2
15 14 13 12 12 11 11 10 10 9 9 9 9 8 8 7 6 5 4 4 3 3 4 4 3 2 1 0 -0 -1 -2 -2 -2 -3 -4 -4 -4 -4 -4 -4 -3 -3 -3
15 14 13 12 11 11 10 10 9 9 8 8 8 7 7 6 5 4 3 2 2 1 2 2 2 1 -0 -1 -2 -2 -2 -2 -3 -3 -4 -5 -5 -5 -5 -5 -4 -4 -4
14 13 12 11 10 10 9 9 8 8 7 7 7 6 6 5 4 3 2 2 0 -2 -2 -0 -0 -1 -2 -2 -2 -3 -3 -4 -4 -4 -5 -5 -6 -6 -6 -5 -5 -5 -5
12 11 11 10 9 8 8 7 7 7 6 6 6 5 5 4 3 2 2 1 -1 -2 -3 -3 -3 -3 -2 -3 -3 -4 -5 -5 -5 -5 -5 -6 -6 -6 -6 -6 -6 -5 -5
11 10 10 9 8 7 7 6 6 6 5 5 5 4 4 3 2 2 1 -0 -1 -2 -3 -3 -3 -4 -4 -3 -4 -4 -5 -5 -5 -5 -6 -6 -6 -6 -6 -6 -6 -6 -6
10 9 9 7 6 6 6 5 5 4 4 4 4 3 3 2 1 1 -0 -1 -2 -3 -4 -4 -5 -5 -5 -5 -6 -6 -6 -6 -6 -6 -6 -6 -6 -6 -6 -6 -6 -6 -6
9 8 7 6 5 5 4 4 4 3 3 3 2 2 1 1 0 -0 -1 -2 -3 -4 -5 -6 -6 -6 -6 -6 -7 -7 -7 -7 -7 -6 -6 -6 -6 -6 -6 -6 -6 -6 -6
7 6 5 4 4 4 3 3 3 3 2 2 1 1 0 -0 -1 -1 -2 -3 -4 -5 -6 -7 -7 -7 -7 -7 -8 -8 -8 -7 -7 -6 -6 -6 -6 -6 -6 -6 -6 -6 -6
5 4 3 3 3 3 2 2 2 1 1 0 -0 -0 -1 -1 -2 -3 -4 -5 -6 -6 -7 -7 -8 -8 -8 -8 -8 -9 -9 -8 -7 -7 -6 -6 -6 -6 -5 -5 -6 -5 -5
3 2 2 2 2 2 2 1 1 1 0 -0 -0 -1 -1 -2 -3 -4 -5 -6 -7 -7 -8 -8 -8 -9 -9 -8 -9 -9 -9 -9 -9 -8 -8 -7 -7 -6 -6 -6 -6 -6 -6
2 2 2 2 2 1 1 1 0 -0 -0 -1 -1 -1 -2 -3 -4 -5 -5 -6 -7 -7 -8 -9 -9 -9 -9 -9 -9 -9 -9 -9 -9 -8 -8 -8 -6 -6 -6 -6 -6 -6 -6
1 1 1 1 1 1 0 -0 -0 -1 -1 -2 -2 -3 -3 -4 -5 -5 -6 -7 -8 -8 -8 -9 -9 -9 -9 -9 -9 -9 -9 -9 -9 -7 -8 -9 -7 -7 -7 -6 -5 -5 -5
1 1 1 1 0 -0 -1 -1 -1 -2 -2 -2 -3 -4 -5 -5 -5 -7 -8 -8 -9 -8 -8 -8 -9 -9 -9 -8 -9 -9 -9 -9 -10 -8 -7 -9 -7 -8 -7 -6 -5 -5 -5
0 0 0 -0 -1 -1 -2 -2 -3 -3 -3 -3 -4 -4 -5 -6 -7 -8 -9 -9 -9 -8 -9 -8 -8 -7 -7 -7 -8 -8 -9 -9 -10 -10 -8 -9 -9 -9 -10 -7 -6 -6 -5
Wind_Speed
6 8 8 10 10 9 7 6 7 7 6 7 8 9 8 9 10 11 12 14 13 11 10 9 9 9 9 9 9 10 10 10 10 11 11 11 11 11 12 12 12 12 12
10 8 7 8 8 9 9 9 8 6 5 5 5 7 7 9 10 11 12 13 13 11 9 8 8 8 9 9 10 10 10 10 10 11 11 11 12 12 12 12 13 13 13
15 11 6 6 9 12 12 10 8 6 4 4 4 4 5 7 9 10 11 12 12 10 8 7 6 7 9 10 11 11 10 10 10 11 11 12 12 12 13 13 14 14 14
18 12 7 7 11 13 10 6 5 5 4 4 3 2 2 5 7 9 10 10 10 9 7 5 5 5 7 10 11 12 11 10 10 11 11 12 13 13 14 15 15 16 16
19 13 8 8 14 9 6 6 4 4 3 2 2 2 1 2 4 8 8 9 9 9 7 5 4 3 5 8 11 13 12 11 11 11 12 13 13 14 15 16 17 18 18
18 14 9 10 12 8 6 6 5 3 3 2 2 3 2 1 2 4 6 8 8 8 6 5 3 1 2 6 9 12 12 12 11 12 13 14 14 15 17 18 19 20 20
17 14 9 9 9 8 8 8 5 4 3 2 3 2 3 2 1 1 2 4 4 5 5 5 3 2 3 5 7 11 12 13 12 13 14 15 16 17 19 20 21 21 21
18 15 13 12 10 9 9 8 6 4 2 2 3 3 1 2 2 2 0 2 2 2 3 2 1 3 5 6 7 11 12 12 13 15 16 17 19 20 21 23 23 23 23
16 15 14 12 11 11 11 9 7 7 4 2 2 4 4 4 2 3 2 1 1 2 2 2 4 6 8 8 10 10 11 13 15 17 18 20 21 23 24 25 25 24 24
13 15 15 13 13 10 11 10 7 5 6 4 2 2 2 3 3 1 3 2 2 1 1 3 6 9 10 11 10 11 13 14 16 18 21 23 24 25 26 26 26 25 25
9 11 13 12 12 10 11 9 7 7 4 5 4 3 2 3 2 2 3 3 3 2 2 4 5 7 10 11 12 12 14 16 18 21 24 26 27 27 28 28 27 26 26
7 9 10 10 11 10 11 10 8 8 6 5 4 3 3 3 2 3 3 3 4 4 3 4 3 4 7 9 12 15 17 18 21 23 25 27 28 28 28 28 27 28 28
7 11 11 11 10 10 10 9 9 8 7 7 5 3 3 3 3 3 3 3 3 3 3 3 2 3 4 8 14 19 19 21 23 25 27 28 28 27 27 28 28 28 28
8 11 11 10 10 11 11 10 8 7 7 7 6 5 4 3 3 3 3 3 2 3 3 4 2 1 4 12 17 20 17 22 25 26 27 27 27 27 27 27 28 28 29
9 11 12 12 11 11 11 10 8 7 7 5 5 5 3 3 3 3 3 4 3 3 3 4 3 3 9 13 16 16 16 23 26 26 26 26 26 27 28 28 28 28 28
12 13 13 13 12 11 10 9 8 7 6 5 4 5 3 2 2 3 3 3 4 5 4 4 4 5 9 14 19 19 20 24 24 25 26 26 27 28 28 28 28 28 28
14 14 14 13 12 11 10 9 8 7 6 5 4 4 3 3 3 3 3 3 4 4 6 5 4 4 6 9 14 18 19 19 19 24 27 28 28 28 28 28 28 28 29
13 14 14 13 12 11 10 9 8 6 5 5 3 2 3 3 3 3 3 4 4 5 6 8 5 4 7 8 8 9 15 17 18 24 27 27 28 28 28 28 28 29 29
14 14 14 13 12 11 9 8 7 6 5 4 2 1 2 3 4 4 5 5 5 6 5 6 7 5 5 7 9 10 10 11 17 21 24 25 26 27 28 28 29 29 29
15 14 14 13 12 11 9 8 7 6 5 4 3 1 2 4 5 6 5 6 6 6 5 6 7 7 7 7 7 8 11 7 10 14 20 22 24 25 27 29 29 29 29
15 15 15 13 12 9 8 7 6 5 4 3 2 2 3 5 6 6 5 5 5 4 5 6 7 8 8 7 9 8 13 11 10 11 9 9 11 12 16 24 26 28 29
14 14 13 12 10 8 11 9 7 4 3 1 2 4 5 5 7 9 11 12 11 8 6 6 7 10 11 10 9 11 12 14 11 4 6 12 10 12 10 12 24 29 30
14 13 11 10 9 9 10 8 7 4 2 2 2 3 3 4 6 5 9 13 12 15 16 11 11 11 13 12 12 14 12 13 15 11 11 16 11 13 11 17 27 30 31
11 10 9 8 7 7 8 7 7 4 2 1 1 2 3 5 6 9 7 6 6 8 12 10 10 12 12 11 12 13 13 12 13 11 8 12 14 14 13 10 26 29 28
8 7 6 6 5 5 6 5 5 3 1 2 3 3 5 5 12 15 9 7 8 9 15 20 21 20 22 23 18 10 9 11 14 12 6 6 7 9 11 13 15 21 22
6 6 5 4 4 3 4 3 3 3 2 3 3 4 8 11 14 15 9 8 9 9 10 11 12 15 14 16 19 9 7 10 11 8 4 4 5 6 8 6 7 9 14
Wind_Direction
181 182 184 182 181 174 164 150 133 123 112 99 95 101 114 126 121 112 109 109 108 104 95 83 69 55 42 31 24 17 10 5 2 0 357 354 351 348 344 339 335 331 327
183 182 180 180 179 173 161 148 138 125 106 95 85 97 117 135 134 126 120 117 115 111 102 86 66 48 34 24 18 12 7 3 0 357 354 350 347 344 339 335 331 326 321
186 182 177 175 171 161 145 131 121 108 94 82 74 86 113 138 148 142 134 129 126 122 116 99 73 49 33 20 11 5 1 360 356 352 349 346 343 339 335 331 327 323 317
185 178 172 169 160 150 142 130 124 101 89 88 83 62 96 136 157 161 153 148 145 142 137 123 95 54 32 17 6 358 353 350 347 345 342 339 337 334 331 327 323 319 314
182 172 166 159 153 145 138 136 119 119 116 110 112 103 94 127 151 165 169 172 172 168 162 152 126 73 27 8 0 353 344 340 338 336 334 332 329 327 325 322 318 314 310
176 165 159 156 151 142 137 131 123 103 109 119 89 72 43 54 132 163 179 182 189 187 179 163 152 129 0 351 350 345 338 332 329 327 326 324 323 322 321 318 314 310 306
171 165 160 158 156 154 152 141 124 115 102 104 97 57 17 23 60 144 172 172 185 189 176 169 185 240 300 324 335 336 330 323 319 319 319 317 317 317 316 314 310 306 303
173 171 165 166 161 150 148 149 137 126 114 104 133 122 68 343 343 19 348 178 160 132 128 142 251 296 301 299 305 319 320 315 312 312 311 312 313 313 312 310 307 303 301
174 172 169 164 163 160 164 162 151 142 144 113 116 150 157 207 260 326 2 42 109 105 70 33 353 334 321 306 300 302 307 307 306 305 306 309 310 309 308 306 304 301 300
174 170 168 164 164 162 162 164 155 145 140 145 122 81 117 138 157 263 320 352 16 81 42 350 337 340 340 332 324 317 313 309 305 304 306 308 308 307 305 304 302 301 301
167 167 165 162 161 159 158 153 146 140 135 146 150 139 108 76 100 156 259 311 329 309 311 312 326 346 358 7 360 342 328 318 311 308 307 307 306 305 304 302 302 302 300
157 164 162 159 157 155 153 149 141 137 130 128 127 127 134 142 170 166 216 259 280 288 297 297 317 357 15 24 3 343 332 322 315 310 307 305 304 303 303 303 302 300 298
168 171 163 159 155 150 144 138 135 133 130 131 130 123 121 134 143 150 172 233 267 287 299 301 269 355 39 360 344 332 325 318 313 309 305 303 303 303 303 301 298 296 295
165 159 153 150 146 144 141 135 132 129 128 130 135 135 133 145 150 160 167 172 274 293 285 275 298 308 346 341 329 323 318 314 310 306 304 303 303 302 299 298 296 295 294
145 147 146 145 142 139 138 135 134 129 131 131 139 141 139 149 149 158 159 163 186 257 275 266 283 291 326 321 316 316 312 310 306 305 304 302 301 300 298 296 295 294 293
147 147 145 142 138 135 133 126 124 125 128 131 138 143 145 158 165 168 174 180 183 202 247 251 251 276 300 307 310 313 305 306 306 303 301 301 300 298 297 296 296 295 293
146 147 144 141 136 132 128 124 124 134 135 135 140 157 175 178 185 192 193 198 207 204 250 265 247 270 281 286 299 299 299 295 293 299 301 300 299 298 298 297 296 294 293
141 141 138 134 131 127 126 128 134 134 136 140 142 156 201 204 207 210 214 225 231 225 239 275 276 271 271 279 283 286 298 297 294 297 298 299 299 298 297 296 296 296 295
134 133 130 127 124 121 118 121 122 121 118 115 121 189 239 228 235 234 234 239 243 250 243 268 285 275 275 284 288 287 285 284 290 295 297 298 296 296 296 297 297 297 295
128 125 121 117 116 113 111 111 108 103 94 81 63 356 278 247 241 241 243 245 249 258 264 271 283 288 286 284 283 293 300 284 288 292 291 291 292 295 294 295 295 294 293
117 115 113 110 108 106 106 104 99 93 81 60 13 328 295 275 263 261 258 249 245 253 264 272 286 296 297 298 298 296 301 300 288 279 276 279 284 282 285 288 291 290 289
107 107 108 109 105 108 115 114 110 100 88 40 337 325 311 303 303 311 306 300 294 286 286 281 289 293 295 293 294 296 299 302 301 270 285 294 287 286 283 280 287 289 290
101 101 103 108 111 120 123 118 111 110 87 31 350 339 335 328 335 302 299 302 299 298 297 296 291 287 289 291 290 291 291 292 295 296 298 295 291 288 286 287 291 291 291
102 107 112 117 121 134 135 131 119 109 95 27 318 290 291 298 307 304 282 280 273 278 285 285 272 274 277 278 277 288 294 295 290 286 278 286 290 289 290 284 289 288 289
105 111 117 126 135 151 157 149 140 148 194 274 278 290 311 302 311 313 310 294 286 281 292 294 293 294 297 301 303 302 298 300 298 296 279 268 282 292 291 282 279 284 288
115 117 115 123 139 162 182 182 169 180 243 283 296 303 319 319 313 314 308 295 294 291 288 295 299 300 297 295 299 290 280 288 293 294 263 262 285 308 299 260 255 272 284
Height
1530 1532 1534 1536 1537 1538 1539 1540 1540 1541 1541 1541 1540 1540 1539 1539 1538 1538 1537 1537 1536 1536 1535 1535 1534 1534 1533 1532 1531 1530 1529 1528 1526 1525 1524 1523 1522 1521 1521 1520 1519 1519 1519
1528 1530 1532 1533 1535 1536 1538 1538 1539 1540 1540 1539 1539 1538 1537 1537 1536 1536 1535 1535 1535 1534 1534 1533 1533 1532 1531 1530 1529 1527 1526 1525 1524 1522 1521 1520 1519 1518 1517 1516 1515 1515 1514
1525 1527 1529 1531 1533 1534 1536 1537 1537 1538 1538 1538 1537 1537 1536 1535 1534 1534 1533 1533 1533 1533 1532 1532 1531 1530 1529 1528 1527 1525 1524 1522 1520 1519 1518 1517 1515 1514 1513 1512 1511 1511 1510
1522 1524 1526 1528 1530 1532 1533 1535 1536 1536 1537 1536 1536 1535 1534 1533 1532 1532 1531 1531 1531 1531 1530 1530 1529 1528 1527 1526 1524 1522 1521 1519 1517 1516 1514 1513 1512 1510 1509 1508 1507 1506 1505
1519 1521 1523 1525 1527 1529 1531 1533 1534 1535 1535 1535 1534 1533 1532 1531 1530 1530 1530 1529 1529 1529 1528 1528 1527 1526 1524 1523 1521 1519 1517 1515 1514 1512 1511 1509 1508 1506 1505 1504 1502 1501 1500
1515 1518 1520 1522 1524 1527 1528 1530 1531 1532 1533 1533 1532 1531 1530 1529 1529 1528 1528 1527 1527 1527 1526 1525 1524 1523 1521 1519 1517 1515 1514 1512 1510 1508 1507 1505 1503 1502 1500 1499 1497 1496 1495
1511 1514 1516 1519 1521 1523 1526 1527 1528 1529 1530 1530 1530 1529 1528 1528 1527 1526 1526 1525 1525 1524 1523 1522 1521 1519 1518 1516 1514 1511 1509 1508 1506 1504 1502 1501 1499 1498 1496 1494 1492 1491 1489
1506 1509 1511 1514 1517 1520 1522 1523 1525 1526 1527 1527 1527 1526 1526 1526 1524 1524 1524 1523 1522 1522 1521 1519 1518 1516 1514 1511 1509 1507 1505 1503 1501 1499 1498 1497 1495 1493 1490 1488 1487 1485 1484
1500 1503 1506 1509 1512 1515 1517 1519 1521 1522 1523 1524 1524 1524 1523 1522 1522 1522 1520 1520 1519 1519 1517 1516 1514 1512 1509 1507 1504 1502 1500 1498 1496 1494 1493 1492 1489 1487 1484 1482 1480 1479 1477
1495 1498 1501 1504 1507 1510 1513 1515 1517 1518 1519 1520 1520 1520 1520 1519 1519 1518 1518 1517 1516 1515 1514 1513 1511 1508 1505 1502 1500 1497 1495 1492 1490 1489 1488 1486 1483 1480 1478 1475 1473 1471 1469
1489 1492 1495 1498 1501 1504 1508 1510 1512 1514 1515 1516 1516 1516 1515 1515 1515 1515 1514 1513 1513 1512 1510 1509 1506 1503 1500 1497 1494 1492 1489 1486 1485 1483 1480 1478 1475 1472 1470 1468 1465 1463 1461
1482 1486 1489 1492 1495 1499 1502 1505 1507 1509 1510 1511 1512 1511 1511 1511 1511 1510 1509 1508 1507 1506 1505 1504 1501 1498 1495 1492 1489 1486 1483 1480 1477 1474 1472 1469 1467 1464 1461 1459 1456 1454 1452
1475 1479 1482 1486 1490 1493 1497 1500 1502 1504 1505 1506 1507 1507 1507 1507 1507 1506 1504 1502 1500 1498 1497 1497 1495 1492 1489 1486 1483 1480 1476 1472 1469 1466 1463 1460 1458 1455 1452 1449 1447 1445 1443
1469 1472 1476 1480 1485 1488 1491 1494 1497 1499 1500 1502 1502 1503 1503 1503 1502 1501 1500 1498 1495 1492 1490 1490 1488 1486 1482 1479 1476 1472 1468 1464 1460 1457 1454 1451 1448 1445 1442 1440 1438 1436 1434
1463 1466 1471 1475 1480 1483 1486 1489 1492 1494 1496 1498 1498 1499 1499 1499 1498 1497 1495 1493 1492 1487 1482 1481 1481 1479 1476 1472 1468 1463 1459 1456 1452 1449 1445 1442 1439 1437 1434 1432 1429 1427 1425
1457 1461 1466 1471 1475 1479 1482 1485 1488 1490 1492 1494 1495 1495 1495 1494 1493 1492 1490 1488 1486 1482 1477 1474 1474 1472 1469 1465 1461 1456 1452 1448 1444 1440 1437 1434 1431 1428 1425 1423 1420 1418 1415
1452 1457 1462 1466 1470 1475 1478 1482 1485 1487 1489 1490 1491 1491 1490 1490 1489 1487 1485 1483 1480 1477 1472 1467 1467 1464 1461 1457 1453 1449 1444 1440 1436 1432 1429 1426 1422 1420 1417 1414 1411 1408 1406
1448 1453 1457 1462 1467 1472 1476 1479 1482 1485 1486 1487 1487 1487 1486 1485 1483 1481 1479 1477 1474 1471 1466 1461 1458 1456 1453 1449 1445 1441 1437 1433 1429 1425 1421 1417 1414 1411 1408 1405 1402 1399 1396
1444 1449 1454 1460 1465 1470 1474 1477 1480 1482 1483 1483 1483 1482 1481 1480 1478 1476 1473 1470 1468 1464 1460 1455 1451 1449 1445 1442 1437 1433 1429 1424 1421 1417 1413 1409 1406 1402 1399 1396 1392 1389 1385
1442 1447 1452 1458 1464 1469 1473 1476 1478 1479 1479 1478 1478 1477 1476 1474 1473 1470 1467 1464 1461 1458 1454 1450 1446 1442 1438 1435 1431 1425 1419 1416 1412 1409 1405 1402 1398 1394 1391 1387 1383 1379 1375
1441 1446 1452 1458 1464 1468 1471 1473 1475 1475 1475 1474 1474 1472 1471 1469 1467 1464 1462 1458 1455 1452 1449 1445 1440 1436 1432 1428 1424 1419 1413 1407 1403 1401 1396 1392 1389 1384 1381 1377 1373 1369 1365
1442 1449 1455 1460 1464 1467 1469 1470 1471 1471 1471 1470 1469 1468 1466 1464 1461 1458 1456 1453 1451 1448 1444 1440 1435 1431 1426 1423 1418 1414 1408 1402 1395 1393 1388 1382 1380 1375 1371 1367 1363 1359 1356
1445 1451 1456 1461 1464 1466 1467 1468 1468 1468 1467 1467 1465 1463 1461 1458 1455 1452 1449 1446 1444 1442 1439 1436 1430 1426 1421 1417 1413 1407 1403 1398 1391 1386 1382 1373 1371 1366 1362 1358 1354 1351 1347
1449 1454 1458 1460 1463 1464 1464 1465 1465 1465 1464 1462 1460 1457 1455 1452 1449 1446 1442 1440 1437 1435 1432 1429 1424 1419 1416 1412 1408 1403 1397 1390 1384 1381 1377 1367 1361 1357 1352 1348 1345 1341 1338
1452 1456 1458 1460 1461 1462 1463 1463 1462 1461 1460 1458 1455 1452 1449 1446 1443 1440 1438 1434 1431 1428 1425 1422 1418 1414 1411 1407 1403 1397 1391 1384 1376 1371 1369 1362 1353 1347 1340 1336 1335 1332 1328
1454 1457 1458 1460 1461 1461 1461 1460 1459 1457 1455 1453 1450 1447 1444 1441 1438 1435 1432 1429 1424 1421 1417 1413 1410 1407 1404 1400 1396 1392 1386 1379 1372 1364 1360 1356 1348 1342 1330 1322 1323 1321 1318